• Join FlightAware (Why Join?)
  • Login
  • US Flag 
09:02PM EST


 

Airport Tracker/Info


-or-


 

Live Flight TrackerFlight Track Log ✈ ASQ5875 ✈ 06-May-2013 ✈ KORD - KLEX

Flight Track Log - Related Links

Times and Time Zones

All times are in EDT time to prevent confusion due to time zone crossing. See the ASQ5875 flight status page for this flight to view local times or setup timezone preferences in your user account.

Time Position Orientation Groundspeed Altitude Reporting Facility
EDT Latitude Longitude Course Direction KTS MPH feet Rate Location/Type
10:40PM 41.9833 -87.8833 174° South 154 177 1,600  Level Chicago TRACON
10:41PM 41.9500 -87.8333 132° Southeast 210 242 4,000 1,500 Climbing Chicago TRACON
10:43PM 41.7317 -87.6834 157° South  Level Estimated
10:43PM 41.8439 -87.8369 181° South 248 285 5,500  Level Chicago Center
10:44PM 41.6483 -87.6094 156° South  Level Estimated
10:44PM 41.7553 -87.8353 179° South 263 303 8,500  Level Chicago Center
10:45PM 41.5487 -87.5963 174° South  Level FlightAware Approximate
10:45PM 41.6828 -87.7925 156° South 290 334 10,700  Level Chicago Center
10:46PM 41.6122 -87.7336 148° Southeast 298 343 12,700 1,279 Climbing Chicago Center
10:47PM 41.5322 -87.6656 148° Southeast 339 390 13,300 787 Climbing Chicago Center
10:48PM 41.4442 -87.5894 147° Southeast 371 427 14,300 984 Climbing Chicago Center
10:49PM 41.3381 -87.5583 168° South 395 455 15,300 984 Climbing Chicago Center
10:50PM 41.2289 -87.5383 172° South 394 453 16,300 1,033 Climbing Chicago Center
10:51PM 41.1183 -87.5119 170° South 401 461 17,400 984 Climbing Chicago Center
10:52PM 41.0078 -87.4825 169° South 406 467 18,300 934 Climbing Chicago Center
10:53PM 40.8961 -87.4511 168° South 409 471 19,300 984 Climbing Chicago Center
10:54PM 40.7819 -87.4233 170° South 414 476 20,300 1,024 Climbing Chicago Center
10:55PM 40.6678 -87.3925 168° South 420 483 21,400 1,122 Climbing Chicago Center
10:56PM 40.5297 -87.3544 168° South 423 487 22,600 1,082 Climbing Chicago Center
10:57PM 40.4117 -87.3172 166° South 425 489 23,600 1,033 Climbing Chicago Center
10:58PM 40.3019 -87.2636 160° South 424 488 24,700 1,033 Climbing Chicago Center
10:59PM 40.1919 -87.2133 161° South 421 484 25,700 984 Climbing Chicago Center
11:00PM 40.0831 -87.1589 159° South 420 483 26,700 639 Climbing Chicago Center
11:01PM 39.9728 -87.1047 159° South 426 490 27,000 148 Climbing Chicago Center
11:02PM 39.8703 -87.0194 147° Southeast 440 506 27,000  Level Chicago Center
11:03PM 39.7661 -86.9317 147° Southeast 448 516 27,000  Level Chicago Center
11:04PM 39.6606 -86.8444 148° Southeast 453 521 27,000  Level Chicago Center
11:05PM 39.5550 -86.7572 147° Southeast 455 524 27,000  Level Chicago Center
11:06PM 39.4286 -86.6519 147° Southeast 456 525 27,000  Level Chicago Center
11:07PM 39.3228 -86.5650 148° Southeast 456 525 27,000 -188 Level Chicago Center
11:08PM 39.2189 -86.4778 147° Southeast 451 519 26,600 -984 Descending Indianapolis Center
11:09PM 39.1158 -86.3928 147° Southeast 445 512 24,900 -1,721 Descending Indianapolis Center
11:10PM 39.0117 -86.2728 138° Southeast 426 490 23,100 -1,131 Descending Indianapolis Center
11:11PM 38.9406 -86.1533 127° Southeast 425 489 22,600 -689 Descending Indianapolis Center
11:12PM 38.8775 -86.0431 126° Southeast 425 489 21,700 -780 Descending Indianapolis Center
11:13PM 38.8106 -85.9256 126° Southeast 411 473 21,000 -341 Descending Indianapolis Center
11:14PM 38.7383 -85.8008 127° Southeast 405 466 21,000  Level Indianapolis Center
11:15PM 38.6714 -85.6847 126° Southeast 408 470 21,000 -295 Level Indianapolis Center
11:16PM 38.5933 -85.5517 127° Southeast 406 467 20,400 -1,525 Descending Indianapolis Center
11:17PM 38.5289 -85.4381 126° Southeast 395 455 17,900 -2,488 Descending Indianapolis Center
11:18PM 38.4656 -85.3308 127° Southeast 378 435 15,300 -2,488 Descending Indianapolis Center
11:19PM 38.4047 -85.2261 127° Southeast 366 421 12,800 -1,918 Descending Indianapolis Center
11:20PM 38.3419 -85.1189 127° Southeast 355 409 11,400 -885 Descending Indianapolis Center
11:21PM 38.2797 -85.0222 129° Southeast 354 407 11,000 -344 Descending Indianapolis Center
11:22PM 38.2081 -84.9428 139° Southeast 345 397 10,700 -689 Descending Indianapolis Center
11:23PM 38.1367 -84.8939 152° Southeast 295 339 9,600 -1,623 Descending Indianapolis Center
11:24PM 38.0719 -84.8483 151° Southeast 271 312 7,400 -2,195 Descending Indianapolis Center
11:25PM 38.0125 -84.8011 148° Southeast 257 296 5,100 -2,293 Descending Indianapolis Center
11:26PM 37.9536 -84.7569 149° Southeast 250 288 2,700 -2,361 Descending Indianapolis Center